This is the latest recevied weather packets stored in our database for station/object DJ2RF. If no packets are shown the sender has not sent any weather packets the latest 10 day(s).
| Time | Temp. | Humidity | Pressure | Rain* | Wind** | Luminosity | Snow |
|---|---|---|---|---|---|---|---|
| 1777626481 | 15.56° C | 39% | 1028.7 hPa | 0 mm | - | - | - |
| 1777625956 | 15° C | 42% | 1028.6 hPa | 0 mm | - | - | - |
| 1777625446 | 15° C | 41% | 1028.6 hPa | 0 mm | - | - | - |
| 1777624856 | 14.44° C | 42% | 1028.7 hPa | 0 mm | - | - | - |
| 1777624316 | 14.44° C | 42% | 1028.7 hPa | 0 mm | - | - | - |
| 1777623761 | 13.89° C | 43% | 1028.8 hPa | 0 mm | - | - | - |
| 1777623191 | 13.33° C | 45% | 1028.8 hPa | 0 mm | - | - | - |
| 1777622676 | 12.78° C | 44% | 1028.8 hPa | 0 mm | - | - | - |
| 1777622086 | 12.22° C | 46% | 1028.7 hPa | 0 mm | - | - | - |
| 1777621516 | 11.67° C | 45% | 1028.7 hPa | 0 mm | - | - | - |
| 1777621021 | 10.56° C | 50% | 1028.6 hPa | 0 mm | - | - | - |
| 1777620451 | 9.44° C | 52% | 1028.6 hPa | 0 mm | - | - | - |
| 1777619951 | 9.44° C | 54% | 1028.6 hPa | 0 mm | - | - | - |
| 1777619420 | 8.89° C | 54% | 1028.7 hPa | 0 mm | - | - | - |
| 1777618861 | 7.78° C | 55% | 1028.7 hPa | 0 mm | - | - | - |
| 1777618366 | 7.22° C | 56% | 1028.7 hPa | 0 mm | - | - | - |
| 1777617836 | 6.67° C | 57% | 1028.7 hPa | 0 mm | - | - | - |
| 1777617246 | 6.11° C | 59% | 1028.7 hPa | 0 mm | - | - | - |
| 1777616756 | 6.11° C | 59% | 1028.6 hPa | 0 mm | - | - | - |
| 1777616188 | 5.56° C | 62% | 1028.4 hPa | 0 mm | - | - | - |
| 1777615676 | 5° C | 64% | 1028.4 hPa | 0 mm | - | - | - |
| 1777615188 | 4.44° C | 65% | 1028.4 hPa | 0 mm | - | - | - |
| 1777614631 | 3.89° C | 67% | 1028.5 hPa | 0 mm | - | - | - |
| 1777614121 | 3.33° C | 67% | 1028.4 hPa | 0 mm | - | - | - |
| 1777613556 | 2.78° C | 67% | 1028.4 hPa | 0 mm | - | - | - |
* Rain latest hour (hover to see other rain measurements)
** Current wind speed in m/s (hover to see current wind gust speed)